Time,TemperatureF,DewpointF,PressureIn,WindDirection,WindDirectionDegrees,WindSpeedMPH,WindSpeedGustMPH,Humidity,HourlyPrecipIn,Conditions,Clouds,dailyrainin,SoftwareType,DateUTC
2013-03-12 00:02:00,37.0,34.0,29.53,WSW,251,1.0,5.0,88,0.00,,,0.31,,2013-03-12 04:02:00,
2013-03-12 00:13:00,37.0,34.0,29.53,WSW,251,1.0,5.0,88,0.00,,,0.31,,2013-03-12 04:13:00,
2013-03-12 00:22:00,37.0,34.0,29.54,SW,225,2.0,7.0,90,0.00,,,0.31,,2013-03-12 04:22:00,
2013-03-12 00:32:00,36.0,33.0,29.54,South,184,3.0,5.0,90,0.01,,,0.30,,2013-03-12 04:32:00,
2013-03-12 00:43:00,36.0,33.0,29.54,South,184,3.0,5.0,90,0.01,,,0.30,,2013-03-12 04:43:00,
2013-03-12 00:52:00,36.0,34.0,29.54,West,264,0.0,9.0,91,0.01,,,0.30,,2013-03-12 04:52:00,
2013-03-12 01:02:00,36.0,34.0,29.55,SW,215,5.0,7.0,91,0.01,,,0.29,,2013-03-12 05:02:00,
2013-03-12 01:12:00,36.0,34.0,29.55,SW,215,5.0,7.0,91,0.01,,,0.29,,2013-03-12 05:12:00,
2013-03-12 01:22:00,36.0,34.0,29.56,SSW,199,8.0,9.0,91,0.02,,,0.30,,2013-03-12 05:22:00,
2013-03-12 01:32:00,36.0,34.0,29.56,SSW,203,0.0,5.0,91,0.01,,,0.30,,2013-03-12 05:32:00,
2013-03-12 01:42:00,36.0,34.0,29.56,SSW,203,0.0,5.0,91,0.01,,,0.30,,2013-03-12 05:42:00,
2013-03-12 01:52:00,36.0,34.0,29.56,SSW,209,2.0,7.0,91,0.01,,,0.30,,2013-03-12 05:52:00,
2013-03-12 02:02:00,36.0,34.0,29.56,WNW,284,1.0,5.0,91,0.01,,,0.30,,2013-03-12 06:02:00,
2013-03-12 02:12:00,36.0,34.0,29.56,WNW,284,1.0,5.0,91,0.01,,,0.30,,2013-03-12 06:12:00,
2013-03-12 02:22:00,36.0,33.0,29.57,SW,217,1.0,6.0,90,0.00,,,0.30,,2013-03-12 06:22:00,
2013-03-12 02:32:00,36.0,33.0,29.58,WSW,254,0.0,4.0,90,0.00,,,0.30,,2013-03-12 06:32:00,
2013-03-12 02:42:00,36.0,33.0,29.58,WSW,254,0.0,4.0,90,0.00,,,0.30,,2013-03-12 06:42:00,
2013-03-12 02:52:00,36.0,33.0,29.58,WNW,283,4.0,8.0,90,0.00,,,0.30,,2013-03-12 06:52:00,
2013-03-12 03:02:00,35.0,32.0,29.58,West,273,3.0,9.0,90,0.01,,,0.31,,2013-03-12 07:02:00,
2013-03-12 03:12:00,35.0,32.0,29.58,West,273,3.0,9.0,90,0.01,,,0.31,,2013-03-12 07:12:00,
2013-03-12 03:22:00,35.0,32.0,29.59,WNW,290,2.0,7.0,90,0.01,,,0.31,,2013-03-12 07:22:00,
2013-03-12 03:32:00,35.0,32.0,29.60,SW,221,0.0,12.0,90,0.01,,,0.31,,2013-03-12 07:32:00,
2013-03-12 03:42:00,35.0,32.0,29.60,SW,221,0.0,12.0,90,0.01,,,0.31,,2013-03-12 07:42:00,
2013-03-12 03:52:00,35.0,32.0,29.60,SSW,207,3.0,6.0,90,0.01,,,0.31,,2013-03-12 07:52:00,
2013-03-12 04:02:00,35.0,32.0,29.60,WSW,253,2.0,6.0,90,0.01,,,0.32,,2013-03-12 08:02:00,
2013-03-12 04:13:00,35.0,32.0,29.60,WSW,253,2.0,6.0,90,0.01,,,0.32,,2013-03-12 08:13:00,
2013-03-12 04:22:00,35.0,32.0,29.59,West,272,0.0,10.0,90,0.01,,,0.32,,2013-03-12 08:22:00,
2013-03-12 04:33:00,35.0,32.0,29.59,SW,217,4.0,5.0,90,0.01,,,0.31,,2013-03-12 08:33:00,
2013-03-12 04:42:00,35.0,32.0,29.59,SW,217,4.0,5.0,90,0.01,,,0.31,,2013-03-12 08:42:00,
2013-03-12 04:52:00,35.0,32.0,29.60,SW,220,2.0,7.0,90,0.01,,,0.30,,2013-03-12 08:52:00,
2013-03-12 05:03:00,35.0,32.0,29.60,SW,216,2.0,5.0,90,0.00,,,0.30,,2013-03-12 09:03:00,
2013-03-12 05:12:00,35.0,32.0,29.60,SW,216,2.0,5.0,90,0.00,,,0.30,,2013-03-12 09:12:00,
2013-03-12 05:22:00,35.0,32.0,29.60,West,276,2.0,5.0,90,0.00,,,0.30,,2013-03-12 09:22:00,
2013-03-12 05:32:00,35.0,32.0,29.60,SW,221,3.0,10.0,90,0.00,,,0.30,,2013-03-12 09:32:00,
2013-03-12 05:42:00,35.0,32.0,29.60,SW,221,3.0,10.0,90,0.00,,,0.30,,2013-03-12 09:42:00,
2013-03-12 05:52:00,35.0,32.0,29.61,WSW,252,5.0,7.0,90,0.00,,,0.30,,2013-03-12 09:52:00,
2013-03-12 06:02:00,34.0,32.0,29.61,West,265,3.0,6.0,91,0.01,,,0.31,,2013-03-12 10:02:00,
2013-03-12 06:12:00,34.0,32.0,29.61,West,265,3.0,6.0,91,0.01,,,0.31,,2013-03-12 10:12:00,
2013-03-12 06:22:00,34.0,32.0,29.62,West,280,3.0,4.0,91,0.01,,,0.31,,2013-03-12 10:22:00,
2013-03-12 06:32:00,34.0,31.0,29.63,WNW,298,0.0,3.0,90,0.01,,,0.31,,2013-03-12 10:32:00,
2013-03-12 06:42:00,34.0,31.0,29.63,WNW,298,0.0,3.0,90,0.01,,,0.31,,2013-03-12 10:42:00,
2013-03-12 06:53:00,34.0,31.0,29.63,WSW,257,0.0,5.0,88,0.01,,,0.31,,2013-03-12 10:53:00,
2013-03-12 07:02:00,33.0,30.0,29.65,West,263,0.0,3.0,88,0.00,,,0.31,,2013-03-12 11:02:00,
2013-03-12 07:12:00,33.0,30.0,29.65,West,263,0.0,3.0,88,0.00,,,0.31,,2013-03-12 11:12:00,
2013-03-12 07:22:00,33.0,29.0,29.65,NW,306,1.0,6.0,86,0.00,,,0.31,,2013-03-12 11:22:00,
2013-03-12 07:32:00,33.0,28.0,29.66,SW,235,1.0,9.0,83,0.01,,,0.32,,2013-03-12 11:32:00,
2013-03-12 07:42:00,33.0,28.0,29.66,SW,235,1.0,9.0,83,0.01,,,0.32,,2013-03-12 11:42:00,
2013-03-12 07:52:00,33.0,28.0,29.67,WNW,294,2.0,7.0,83,0.01,,,0.32,,2013-03-12 11:52:00,
2013-03-12 08:03:00,33.0,28.0,29.67,West,260,2.0,5.0,83,0.01,,,0.32,,2013-03-12 12:03:00,
2013-03-12 08:12:00,33.0,28.0,29.67,West,260,2.0,5.0,83,0.01,,,0.32,,2013-03-12 12:12:00,
2013-03-12 08:22:00,33.0,28.0,29.67,WSW,251,1.0,4.0,83,0.01,,,0.32,,2013-03-12 12:22:00,
2013-03-12 08:32:00,33.0,29.0,29.67,WNW,300,0.0,6.0,84,0.00,,,0.32,,2013-03-12 12:32:00,
2013-03-12 08:42:00,33.0,29.0,29.67,WNW,300,0.0,6.0,84,0.00,,,0.32,,2013-03-12 12:42:00,
2013-03-12 08:52:00,33.0,29.0,29.67,West,277,0.0,3.0,85,0.00,,,0.32,,2013-03-12 12:52:00,
2013-03-12 09:02:00,33.0,29.0,29.68,West,272,3.0,3.0,86,0.00,,,0.31,,2013-03-12 13:02:00,
2013-03-12 09:12:00,33.0,29.0,29.68,West,272,3.0,3.0,86,0.00,,,0.31,,2013-03-12 13:12:00,
2013-03-12 09:22:00,33.0,30.0,29.69,SW,226,2.0,6.0,87,0.00,,,0.31,,2013-03-12 13:22:00,
2013-03-12 09:32:00,33.0,29.0,29.69,West,277,0.0,9.0,85,0.00,,,0.30,,2013-03-12 13:32:00,
2013-03-12 09:42:00,33.0,29.0,29.69,West,277,0.0,9.0,85,0.00,,,0.30,,2013-03-12 13:42:00,
2013-03-12 09:52:00,33.0,28.0,29.70,West,263,6.0,6.0,82,0.01,,,0.29,,2013-03-12 13:52:00,
2013-03-12 10:02:00,33.0,28.0,29.70,NW,305,1.0,6.0,82,0.01,,,0.29,,2013-03-12 14:02:00,
2013-03-12 10:12:00,33.0,28.0,29.70,NW,305,1.0,6.0,82,0.01,,,0.29,,2013-03-12 14:12:00,
2013-03-12 10:22:00,33.0,28.0,29.70,WSW,254,10.0,10.0,81,0.01,,,0.29,,2013-03-12 14:22:00,
2013-03-12 10:33:00,33.0,28.0,29.71,West,264,2.0,7.0,80,0.01,,,0.29,,2013-03-12 14:33:00,
2013-03-12 10:42:00,33.0,28.0,29.71,West,264,2.0,7.0,80,0.01,,,0.29,,2013-03-12 14:42:00,
2013-03-12 10:53:00,33.0,28.0,29.71,WNW,286,4.0,9.0,80,0.00,,,0.29,,2013-03-12 14:53:00,
2013-03-12 11:02:00,33.0,27.0,29.71,WNW,291,2.0,11.0,77,0.00,,,0.29,,2013-03-12 15:02:00,
2013-03-12 11:13:00,33.0,27.0,29.71,WNW,291,2.0,11.0,77,0.00,,,0.29,,2013-03-12 15:13:00,
2013-03-12 11:22:00,33.0,26.0,29.72,WSW,254,5.0,6.0,76,0.01,,,0.30,,2013-03-12 15:22:00,
2013-03-12 11:32:00,34.0,27.0,29.72,WNW,295,2.0,9.0,74,0.01,,,0.30,,2013-03-12 15:32:00,
2013-03-12 11:42:00,34.0,27.0,29.72,WNW,295,2.0,9.0,74,0.01,,,0.30,,2013-03-12 15:42:00,
2013-03-12 11:53:00,34.0,26.0,29.72,NW,304,3.0,9.0,71,0.01,,,0.30,,2013-03-12 15:53:00,
2013-03-12 12:03:00,34.0,25.0,29.72,WNW,284,7.0,14.0,70,0.01,,,0.30,,2013-03-12 16:03:00,
2013-03-12 12:12:00,34.0,25.0,29.72,WNW,284,7.0,14.0,70,0.01,,,0.30,,2013-03-12 16:12:00,
2013-03-12 12:23:00,34.0,25.0,29.72,SSW,200,2.0,6.0,70,0.00,,,0.30,,2013-03-12 16:23:00,
2013-03-12 12:33:00,33.0,26.0,29.73,WNW,283,2.0,9.0,75,0.00,,,0.30,,2013-03-12 16:33:00,
2013-03-12 12:43:00,33.0,26.0,29.73,WNW,283,2.0,9.0,75,0.00,,,0.30,,2013-03-12 16:43:00,
2013-03-12 12:52:00,33.0,26.0,29.74,SW,231,4.0,15.0,76,0.00,,,0.29,,2013-03-12 16:52:00,
2013-03-12 13:03:00,32.0,25.0,29.74,WSW,256,4.0,13.0,76,0.00,,,0.29,,2013-03-12 17:03:00,
2013-03-12 13:13:00,32.0,25.0,29.74,WSW,256,4.0,13.0,76,0.00,,,0.29,,2013-03-12 17:13:00,
2013-03-12 13:23:00,32.0,25.0,29.73,West,267,4.0,11.0,76,0.00,,,0.29,,2013-03-12 17:23:00,
2013-03-12 13:34:00,33.0,26.0,29.74,West,267,3.0,9.0,74,0.01,,,0.29,,2013-03-12 17:34:00,
2013-03-12 13:43:00,33.0,26.0,29.74,West,267,3.0,9.0,74,0.01,,,0.29,,2013-03-12 17:43:00,
2013-03-12 13:53:00,33.0,27.0,29.74,SW,226,0.0,11.0,78,0.01,,,0.29,,2013-03-12 17:53:00,
2013-03-12 14:03:00,34.0,26.0,29.74,West,276,0.0,14.0,72,0.01,,,0.29,,2013-03-12 18:03:00,
2013-03-12 14:13:00,34.0,26.0,29.75,WSW,253,2.0,9.0,73,0.01,,,0.29,,2013-03-12 18:13:00,
2013-03-12 14:23:00,34.0,26.0,29.75,WSW,253,2.0,9.0,73,0.01,,,0.29,,2013-03-12 18:23:00,
2013-03-12 14:33:00,34.0,26.0,29.74,WSW,257,6.0,10.0,72,0.00,,,0.29,,2013-03-12 18:33:00,
2013-03-12 14:42:00,34.0,26.0,29.74,WSW,257,6.0,10.0,72,0.00,,,0.29,,2013-03-12 18:42:00,
2013-03-12 14:53:00,34.0,26.0,29.74,NW,305,4.0,16.0,71,0.00,,,0.28,,2013-03-12 18:53:00,
2013-03-12 15:03:00,34.0,26.0,29.73,West,281,5.0,9.0,72,0.00,,,0.27,,2013-03-12 19:03:00,
2013-03-12 15:13:00,34.0,26.0,29.73,West,281,5.0,9.0,72,0.00,,,0.27,,2013-03-12 19:13:00,
2013-03-12 15:23:00,35.0,27.0,29.73,West,262,3.0,11.0,71,0.01,,,0.28,,2013-03-12 19:23:00,
2013-03-12 15:33:00,35.0,26.0,29.73,West,259,5.0,7.0,70,0.01,,,0.28,,2013-03-12 19:33:00,
2013-03-12 15:43:00,35.0,26.0,29.73,West,259,5.0,7.0,70,0.01,,,0.28,,2013-03-12 19:43:00,
2013-03-12 15:53:00,36.0,28.0,29.74,WNW,283,2.0,10.0,72,0.01,,,0.28,,2013-03-12 19:53:00,
2013-03-12 16:02:00,35.0,27.0,29.73,West,275,0.0,10.0,73,0.01,,,0.27,,2013-03-12 20:02:00,
2013-03-12 16:12:00,35.0,27.0,29.73,West,275,0.0,10.0,73,0.01,,,0.27,,2013-03-12 20:12:00,
2013-03-12 16:23:00,34.0,27.0,29.74,SW,225,4.0,15.0,74,0.00,,,0.24,,2013-03-12 20:23:00,
2013-03-12 16:33:00,34.0,27.0,29.74,SW,225,1.0,7.0,76,0.00,,,0.20,,2013-03-12 20:33:00,
2013-03-12 16:42:00,34.0,27.0,29.74,SW,225,1.0,7.0,76,0.00,,,0.20,,2013-03-12 20:42:00,
2013-03-12 16:53:00,34.0,28.0,29.74,West,263,5.0,9.0,77,0.00,,,0.19,,2013-03-12 20:53:00,
2013-03-12 17:03:00,34.0,28.0,29.75,WNW,296,2.0,6.0,78,0.00,,,0.19,,2013-03-12 21:03:00,
2013-03-12 17:13:00,34.0,28.0,29.75,WNW,296,2.0,6.0,78,0.00,,,0.19,,2013-03-12 21:13:00,
2013-03-12 17:22:00,34.0,28.0,29.75,West,268,0.0,7.0,77,0.00,,,0.18,,2013-03-12 21:22:00,
2013-03-12 17:33:00,34.0,27.0,29.75,West,269,5.0,11.0,75,0.00,,,0.18,,2013-03-12 21:33:00,
2013-03-12 17:43:00,34.0,27.0,29.75,West,269,5.0,11.0,75,0.00,,,0.18,,2013-03-12 21:43:00,
2013-03-12 17:53:00,34.0,27.0,29.75,SW,226,6.0,16.0,74,0.00,,,0.17,,2013-03-12 21:53:00,
2013-03-12 18:02:00,34.0,28.0,29.75,WSW,252,2.0,12.0,77,0.01,,,0.18,,2013-03-12 22:02:00,
2013-03-12 18:13:00,34.0,28.0,29.75,WSW,252,2.0,12.0,77,0.01,,,0.18,,2013-03-12 22:13:00,
2013-03-12 18:23:00,34.0,28.0,29.76,WNW,287,2.0,12.0,79,0.01,,,0.17,,2013-03-12 22:23:00,
2013-03-12 18:33:00,33.0,28.0,29.76,SW,214,4.0,7.0,81,0.01,,,0.17,,2013-03-12 22:33:00,
2013-03-12 18:43:00,33.0,28.0,29.76,SW,214,4.0,7.0,81,0.01,,,0.17,,2013-03-12 22:43:00,
2013-03-12 18:53:00,32.0,28.0,29.77,WSW,243,1.0,9.0,85,0.01,,,0.17,,2013-03-12 22:53:00,
2013-03-12 19:03:00,32.0,29.0,29.77,SW,217,0.0,6.0,88,0.00,,,0.16,,2013-03-12 23:03:00,
2013-03-12 19:12:00,32.0,29.0,29.77,SW,217,0.0,6.0,88,0.00,,,0.16,,2013-03-12 23:12:00,
2013-03-12 19:23:00,32.0,29.0,29.77,West,273,0.0,7.0,88,0.00,,,0.16,,2013-03-12 23:23:00,
2013-03-12 19:34:00,32.0,28.0,29.78,SW,230,0.0,5.0,84,0.00,,,0.14,,2013-03-12 23:34:00,
2013-03-12 19:43:00,32.0,28.0,29.78,SW,230,0.0,5.0,84,0.00,,,0.14,,2013-03-12 23:43:00,
2013-03-12 19:52:00,32.0,27.0,29.78,West,259,3.0,14.0,80,0.00,,,0.14,,2013-03-12 23:52:00,
2013-03-12 20:03:00,32.0,26.0,29.78,SW,217,3.0,12.0,79,0.00,,,0.14,,2013-03-13 00:03:00,
2013-03-12 20:13:00,32.0,26.0,29.78,SW,217,3.0,12.0,79,0.00,,,0.14,,2013-03-13 00:13:00,
2013-03-12 20:23:00,32.0,27.0,29.78,WSW,252,0.0,4.0,81,0.00,,,0.14,,2013-03-13 00:23:00,
2013-03-12 20:33:00,31.0,27.0,29.79,WNW,288,0.0,3.0,84,0.00,,,0.13,,2013-03-13 00:33:00,
2013-03-12 20:42:00,31.0,27.0,29.79,WNW,288,0.0,3.0,84,0.00,,,0.13,,2013-03-13 00:42:00,
2013-03-12 20:53:00,31.0,27.0,29.79,WSW,244,0.0,3.0,85,0.00,,,0.13,,2013-03-13 00:53:00,
2013-03-12 21:03:00,31.0,27.0,29.80,SW,223,1.0,4.0,84,0.00,,,0.12,,2013-03-13 01:03:00,
2013-03-12 21:13:00,31.0,27.0,29.80,SW,223,1.0,4.0,84,0.00,,,0.12,,2013-03-13 01:13:00,
2013-03-12 21:22:00,31.0,27.0,29.79,WSW,243,1.0,4.0,85,0.00,,,0.12,,2013-03-13 01:22:00,
2013-03-12 21:33:00,30.0,27.0,29.80,SSW,211,2.0,3.0,88,0.00,,,0.12,,2013-03-13 01:33:00,
2013-03-12 21:42:00,30.0,27.0,29.80,SSW,211,2.0,3.0,88,0.00,,,0.12,,2013-03-13 01:42:00,
2013-03-12 21:52:00,30.0,27.0,29.80,WNW,293,3.0,5.0,88,0.00,,,0.12,,2013-03-13 01:52:00,
2013-03-12 22:03:00,30.0,27.0,29.80,SSW,213,2.0,4.0,87,0.00,,,0.12,,2013-03-13 02:03:00,
2013-03-12 22:12:00,30.0,27.0,29.80,SSW,213,2.0,4.0,87,0.00,,,0.12,,2013-03-13 02:12:00,
2013-03-12 22:22:00,30.0,26.0,29.80,SW,219,2.0,5.0,86,0.00,,,0.11,,2013-03-13 02:22:00,
2013-03-12 22:32:00,30.0,26.0,29.80,West,270,0.0,5.0,85,0.00,,,0.11,,2013-03-13 02:32:00,
2013-03-12 22:43:00,30.0,26.0,29.80,West,270,0.0,5.0,85,0.00,,,0.11,,2013-03-13 02:43:00,
2013-03-12 22:53:00,30.0,26.0,29.80,West,281,0.0,4.0,85,0.00,,,0.11,,2013-03-13 02:53:00,
2013-03-12 23:02:00,30.0,26.0,29.80,West,277,2.0,5.0,84,0.00,,,0.11,,2013-03-13 03:02:00,
2013-03-12 23:13:00,30.0,26.0,29.80,West,277,2.0,5.0,84,0.00,,,0.11,,2013-03-13 03:13:00,
2013-03-12 23:22:00,30.0,25.0,29.80,West,261,0.0,5.0,83,0.00,,,0.10,,2013-03-13 03:22:00,
2013-03-12 23:32:00,30.0,25.0,29.80,West,269,0.0,4.0,83,0.00,,,0.10,,2013-03-13 03:32:00,
2013-03-12 23:42:00,30.0,25.0,29.80,West,269,0.0,4.0,83,0.00,,,0.10,,2013-03-13 03:42:00,